QPF
0.00 0.00 0.00 0.00 0.00 0.00 0.00 0.00 0.00 0.00 0.00 0.00 0.00 0.00 0.00 0.00 0.00 0.00 0.00 0.00 0.00 0.00 0.00 0.00 0.00 0.00 0.00 0.00 0.00 0.00 0.00 0.00 0.00 0.00 0.00 0.00 0.00 0.00 0.00 0.00 0.00 0.00 0.00 0.00 0.00 0.00 0.00 0.00 0.00
0.00 0.00 0.00 0.00 0.00 0.00 0.00 0.00 0.00 0.00 0.00 0.00 0.00 0.00 0.00 0.00 0.00 0.00 0.00 0.00 0.00 0.00 0.00 0.00 0.00 0.00 0.00 0.00 0.00 0.00 0.00 0.00 0.00 0.00 0.00 0.00 0.00 0.00 0.00 0.00 0.00 0.00 0.00 0.00 0.00 0.00 0.00 0.00 0.00
0.00 0.00 0.00 0.00 0.00 0.00 0.00 0.00 0.00 0.00 0.00 0.00 0.00 0.00 0.00 0.00 0.00 0.00 0.00 0.00 0.00 0.00 0.00 0.00 0.00 0.00 0.00 0.00 0.00 0.00 0.00 0.00 0.00 0.00 0.00 0.00 0.00 0.00 0.00 0.00 0.00 0.00 0.00 0.00 0.00 0.00 0.00 0.00 0.00
0.00 0.00 0.00 0.00 0.00 0.00 0.00 0.00 0.00 0.00 0.00 0.00 0.00 0.00 0.00 0.00 0.00 0.00 0.00 0.00 0.00 0.00 0.00 0.00 0.00 0.00 0.00 0.00 0.00 0.00 0.00 0.00 0.00 0.00 0.00 0.00 0.00 0.00 0.00 0.00 0.00 0.00 0.00 0.00 0.00 0.00 0.00 0.00 0.00
0.00 0.00 0.00 0.00 0.00 0.00 0.00 0.00 0.00 0.00 0.00 0.00 0.00 0.00 0.00 0.00 0.00 0.00 0.00 0.00 0.00 0.00 0.00 0.00 0.00 0.00 0.00 0.00 0.00 0.00 0.00 0.00 0.00 0.00 0.00 0.00 0.00 0.00 0.00 0.00 0.00 0.00 0.00 0.00 0.00 0.00 0.01 0.00 0.00
0.00 0.00 0.00 0.00 0.00 0.00 0.00 0.00 0.00 0.00 0.00 0.00 0.00 0.00 0.00 0.00 0.00 0.00 0.00 0.00 0.00 0.00 0.00 0.00 0.00 0.00 0.00 0.00 0.00 0.00 0.00 0.00 0.00 0.00 0.00 0.00 0.00 0.00 0.00 0.00 0.00 0.00 0.00 0.00 0.00 0.01 0.01 0.01 0.01
0.00 0.00 0.00 0.00 0.00 0.00 0.00 0.00 0.00 0.00 0.00 0.00 0.00 0.00 0.00 0.00 0.00 0.00 0.00 0.00 0.00 0.00 0.00 0.00 0.00 0.00 0.00 0.00 0.00 0.00 0.00 0.00 0.00 0.00 0.00 0.00 0.00 0.00 0.00 0.01 0.00 0.00 0.00 0.01 0.01 0.00 0.00 0.01 0.01
0.00 0.00 0.00 0.00 0.00 0.00 0.00 0.00 0.00 0.00 0.00 0.00 0.00 0.00 0.00 0.00 0.00 0.00 0.00 0.00 0.00 0.00 0.00 0.00 0.01 0.00 0.00 0.00 0.00 0.00 0.00 0.00 0.00 0.00 0.00 0.00 0.00 0.00 0.00 0.01 0.01 0.01 0.01 0.01 0.01 0.00 0.00 0.01 0.01
0.00 0.00 0.00 0.00 0.00 0.00 0.00 0.00 0.00 0.00 0.00 0.00 0.00 0.00 0.00 0.00 0.00 0.00 0.00 0.00 0.00 0.00 0.00 0.00 0.01 0.01 0.00 0.00 0.00 0.00 0.00 0.00 0.00 0.00 0.00 0.00 0.00 0.00 0.00 0.00 0.01 0.01 0.02 0.01 0.01 0.01 0.01 0.01 0.01
0.00 0.00 0.00 0.00 0.00 0.00 0.00 0.00 0.00 0.00 0.00 0.00 0.00 0.00 0.00 0.00 0.00 0.00 0.00 0.00 0.00 0.00 0.00 0.00 0.00 0.01 0.00 0.00 0.00 0.00 0.00 0.00 0.00 0.01 0.01 0.02 0.02 0.01 0.00 0.00 0.01 0.03 0.04 0.03 0.02 0.03 0.02 0.03 0.03
0.00 0.00 0.00 0.00 0.00 0.00 0.00 0.00 0.00 0.00 0.00 0.00 0.00 0.00 0.00 0.00 0.00 0.00 0.00 0.00 0.00 0.00 0.00 0.00 0.00 0.00 0.00 0.00 0.00 0.00 0.00 0.01 0.01 0.00 0.01 0.02 0.01 0.01 0.00 0.00 0.00 0.02 0.02 0.04 0.04 0.03 0.02 0.05 0.11
0.00 0.00 0.00 0.00 0.00 0.00 0.00 0.00 0.00 0.00 0.00 0.00 0.00 0.00 0.00 0.00 0.00 0.00 0.00 0.00 0.00 0.00 0.00 0.00 0.00 0.00 0.00 0.00 0.00 0.00 0.00 0.00 0.00 0.01 0.00 0.00 0.00 0.00 0.00 0.00 0.01 0.02 0.03 0.06 0.09 0.09 0.06 0.05 0.06
0.00 0.00 0.00 0.00 0.00 0.00 0.00 0.00 0.00 0.00 0.00 0.00 0.00 0.00 0.00 0.00 0.00 0.00 0.00 0.00 0.00 0.00 0.00 0.00 0.00 0.00 0.00 0.00 0.00 0.00 0.00 0.00 0.00 0.01 0.00 0.00 0.00 0.00 0.00 0.00 0.01 0.01 0.01 0.02 0.04 0.06 0.07 0.08 0.06
0.00 0.00 0.00 0.00 0.00 0.00 0.00 0.00 0.00 0.00 0.00 0.00 0.00 0.00 0.00 0.00 0.00 0.00 0.00 0.00 0.00 0.00 0.00 0.00 0.00 0.00 0.00 0.00 0.00 0.00 0.00 0.00 0.00 0.00 0.00 0.00 0.00 0.01 0.01 0.01 0.02 0.02 0.02 0.02 0.02 0.04 0.06 0.08 0.07
0.00 0.00 0.00 0.00 0.00 0.00 0.00 0.00 0.00 0.00 0.00 0.00 0.00 0.00 0.00 0.00 0.00 0.00 0.00 0.00 0.00 0.00 0.00 0.00 0.00 0.00 0.00 0.00 0.00 0.00 0.00 0.00 0.00 0.00 0.00 0.00 0.00 0.01 0.02 0.02 0.03 0.04 0.04 0.03 0.03 0.05 0.06 0.05 0.04
0.00 0.00 0.00 0.00 0.00 0.00 0.00 0.00 0.00 0.00 0.00 0.00 0.00 0.00 0.00 0.00 0.00 0.00 0.00 0.00 0.00 0.00 0.00 0.00 0.00 0.00 0.00 0.00 0.00 0.00 0.00 0.00 0.00 0.00 0.00 0.00 0.00 0.02 0.05 0.05 0.05 0.08 0.06 0.05 0.06 0.07 0.05 0.05 0.05
0.00 0.00 0.00 0.00 0.00 0.00 0.00 0.00 0.00 0.00 0.00 0.00 0.00 0.00 0.00 0.00 0.00 0.00 0.00 0.00 0.00 0.00 0.00 0.00 0.00 0.00 0.00 0.00 0.00 0.00 0.00 0.00 0.00 0.00 0.01 0.02 0.03 0.03 0.08 0.08 0.10 0.11 0.08 0.09 0.07 0.06 0.06 0.05 0.05
0.00 0.00 0.00 0.00 0.00 0.00 0.00 0.00 0.00 0.00 0.00 0.00 0.00 0.00 0.00 0.00 0.00 0.00 0.00 0.00 0.00 0.00 0.00 0.00 0.00 0.00 0.00 0.00 0.00 0.00 0.00 0.00 0.01 0.02 0.05 0.08 0.09 0.09 0.13 0.13 0.14 0.12 0.12 0.11 0.09 0.06 0.05 0.04 0.04
0.00 0.00 0.00 0.00 0.00 0.00 0.00 0.00 0.00 0.00 0.00 0.00 0.00 0.00 0.00 0.00 0.00 0.01 0.00 0.00 0.00 0.00 0.00 0.00 0.00 0.00 0.01 0.02 0.02 0.03 0.03 0.04 0.06 0.10 0.14 0.17 0.18 0.19 0.20 0.16 0.17 0.13 0.11 0.08 0.06 0.04 0.02 0.02 0.03
0.00 0.00 0.00 0.00 0.00 0.00 0.00 0.00 0.00 0.00 0.00 0.00 0.00 0.00 0.00 0.00 0.00 0.01 0.01 0.01 0.01 0.00 0.00 0.00 0.01 0.03 0.03 0.05 0.11 0.16 0.22 0.24 0.27 0.34 0.37 0.37 0.36 0.34 0.30 0.24 0.18 0.11 0.06 0.03 0.02 0.01 0.01 0.01 0.01
0.00 0.00 0.00 0.00 0.00 0.00 0.00 0.00 0.00 0.00 0.00 0.00 0.00 0.00 0.00 0.00 0.01 0.01 0.01 0.02 0.02 0.02 0.01 0.02 0.03 0.06 0.08 0.13 0.24 0.34 0.44 0.52 0.63 0.71 0.73 0.70 0.66 0.60 0.51 0.38 0.22 0.10 0.04 0.02 0.01 0.01 0.01 0.01 0.01
0.00 0.00 0.00 0.00 0.00 0.00 0.00 0.00 0.00 0.00 0.00 0.00 0.00 0.00 0.00 0.00 0.00 0.01 0.01 0.02 0.02 0.03 0.04 0.04 0.06 0.10 0.14 0.22 0.37 0.52 0.64 0.75 0.87 0.98 1.00 0.94 0.85 0.70 0.55 0.37 0.21 0.08 0.03 0.02 0.01 0.00 0.01 0.02 0.02
0.00 0.00 0.00 0.00 0.00 0.00 0.00 0.00 0.00 0.00 0.00 0.00 0.00 0.00 0.00 0.00 0.00 0.00 0.01 0.02 0.02 0.02 0.03 0.04 0.05 0.09 0.14 0.21 0.36 0.57 0.70 0.79 0.85 0.87 0.88 0.85 0.76 0.64 0.49 0.32 0.18 0.08 0.03 0.01 0.00 0.00 0.01 0.02 0.02
0.00 0.00 0.00 0.00 0.00 0.00 0.00 0.00 0.00 0.00 0.00 0.00 0.00 0.00 0.00 0.00 0.00 0.00 0.00 0.00 0.01 0.01 0.02 0.02 0.03 0.06 0.10 0.15 0.26 0.41 0.50 0.56 0.58 0.57 0.55 0.54 0.49 0.38 0.27 0.18 0.11 0.06 0.04 0.02 0.01 0.01 0.01 0.01 0.02
0.00 0.00 0.00 0.00 0.00 0.00 0.00 0.00 0.00 0.00 0.00 0.00 0.00 0.00 0.00 0.00 0.00 0.00 0.00 0.00 0.00 0.00 0.00 0.01 0.02 0.04 0.08 0.13 0.19 0.26 0.31 0.34 0.35 0.38 0.38 0.37 0.32 0.24 0.17 0.12 0.09 0.07 0.05 0.02 0.01 0.01 0.01 0.01 0.02
0.00 0.00 0.00 0.00 0.00 0.00 0.00 0.00 0.00 0.00 0.00 0.00 0.00 0.00 0.00 0.00 0.00 0.00 0.00 0.00 0.00 0.00 0.00 0.01 0.01 0.04 0.07 0.10 0.14 0.18 0.24 0.26 0.24 0.23 0.20 0.19 0.18 0.16 0.12 0.09 0.08 0.07 0.05 0.02 0.01 0.01 0.01 0.01 0.02
0.00 0.00 0.00 0.00 0.00 0.00 0.00 0.00 0.00 0.00 0.00 0.00 0.00 0.00 0.00 0.00 0.00 0.00 0.00 0.00 0.00 0.00 0.00 0.01 0.02 0.05 0.09 0.13 0.16 0.16 0.18 0.18 0.15 0.12 0.10 0.08 0.07 0.06 0.05 0.05 0.05 0.05 0.03 0.02 0.01 0.01 0.01 0.02 0.04
0.00 0.00 0.00 0.00 0.00 0.00 0.00 0.00 0.00 0.00 0.00 0.00 0.00 0.00 0.00 0.00 0.00 0.00 0.00 0.00 0.00 0.00 0.00 0.01 0.03 0.06 0.09 0.13 0.18 0.22 0.22 0.19 0.12 0.08 0.05 0.04 0.03 0.02 0.02 0.02 0.02 0.02 0.01 0.01 0.01 0.01 0.01 0.03 0.05
0.00 0.00 0.00 0.00 0.00 0.00 0.00 0.00 0.00 0.00 0.00 0.00 0.00 0.00 0.00 0.00 0.00 0.00 0.00 0.00 0.00 0.00 0.01 0.03 0.06 0.10 0.15 0.19 0.24 0.27 0.27 0.23 0.16 0.09 0.06 0.03 0.02 0.02 0.01 0.01 0.01 0.01 0.01 0.00 0.01 0.01 0.01 0.03 0.03
0.00 0.00 0.00 0.00 0.00 0.00 0.00 0.00 0.00 0.00 0.00 0.00 0.00 0.00 0.00 0.00 0.00 0.00 0.00 0.00 0.00 0.01 0.03 0.06 0.11 0.17 0.27 0.39 0.50 0.54 0.48 0.37 0.25 0.14 0.07 0.04 0.03 0.02 0.01 0.01 0.01 0.00 0.00 0.01 0.01 0.01 0.01 0.02 0.02
MSLP
1010.73 1011.02 1011.34 1011.63 1011.82 1011.88 1011.79 1011.62 1011.40 1011.22 1011.14 1011.15 1011.26 1011.41 1011.54 1011.59 1011.53 1011.38 1011.20 1011.05 1011.03 1011.20 1011.59 1012.16 1012.86 1013.57 1014.20 1014.67 1014.96 1015.08 1015.09 1015.06 1015.07 1015.17 1015.39 1015.68 1016.01 1016.32 1016.54 1016.66 1016.68 1016.64 1016.58 1016.56 1016.62 1016.75 1016.94 1017.15 1017.34
1010.70 1011.02 1011.37 1011.67 1011.83 1011.85 1011.72 1011.48 1011.20 1010.96 1010.80 1010.76 1010.81 1010.92 1011.02 1011.06 1011.02 1010.91 1010.78 1010.72 1010.79 1011.05 1011.52 1012.17 1012.93 1013.68 1014.35 1014.85 1015.16 1015.29 1015.31 1015.29 1015.31 1015.40 1015.60 1015.87 1016.16 1016.42 1016.60 1016.68 1016.67 1016.62 1016.56 1016.57 1016.65 1016.81 1017.03 1017.26 1017.45
1010.73 1011.09 1011.45 1011.72 1011.85 1011.82 1011.63 1011.34 1011.01 1010.72 1010.52 1010.43 1010.45 1010.53 1010.61 1010.65 1010.63 1010.56 1010.49 1010.49 1010.63 1010.96 1011.49 1012.18 1012.97 1013.76 1014.44 1014.97 1015.30 1015.47 1015.52 1015.52 1015.56 1015.66 1015.85 1016.08 1016.33 1016.54 1016.67 1016.70 1016.67 1016.61 1016.57 1016.60 1016.71 1016.90 1017.14 1017.37 1017.54
1010.86 1011.23 1011.57 1011.81 1011.90 1011.81 1011.58 1011.24 1010.87 1010.55 1010.33 1010.22 1010.22 1010.28 1010.36 1010.41 1010.40 1010.37 1010.33 1010.38 1010.56 1010.93 1011.48 1012.19 1012.98 1013.77 1014.46 1015.00 1015.37 1015.57 1015.67 1015.71 1015.78 1015.89 1016.07 1016.28 1016.49 1016.65 1016.73 1016.73 1016.68 1016.62 1016.60 1016.66 1016.80 1017.01 1017.25 1017.46 1017.59
1011.07 1011.43 1011.74 1011.94 1011.97 1011.84 1011.56 1011.19 1010.81 1010.47 1010.24 1010.13 1010.13 1010.19 1010.27 1010.33 1010.34 1010.32 1010.32 1010.39 1010.59 1010.96 1011.51 1012.20 1012.97 1013.73 1014.42 1014.96 1015.34 1015.58 1015.72 1015.82 1015.92 1016.05 1016.22 1016.41 1016.59 1016.71 1016.76 1016.74 1016.68 1016.63 1016.63 1016.71 1016.87 1017.08 1017.31 1017.50 1017.58
1011.33 1011.67 1011.93 1012.07 1012.04 1011.86 1011.55 1011.17 1010.78 1010.45 1010.23 1010.13 1010.14 1010.21 1010.30 1010.37 1010.41 1010.41 1010.43 1010.52 1010.72 1011.08 1011.60 1012.24 1012.96 1013.68 1014.32 1014.85 1015.24 1015.50 1015.67 1015.80 1015.93 1016.09 1016.26 1016.44 1016.59 1016.69 1016.72 1016.69 1016.64 1016.60 1016.61 1016.70 1016.87 1017.08 1017.28 1017.42 1017.45
1011.60 1011.90 1012.10 1012.17 1012.08 1011.85 1011.51 1011.12 1010.73 1010.42 1010.22 1010.14 1010.17 1010.26 1010.37 1010.47 1010.54 1010.58 1010.63 1010.74 1010.94 1011.28 1011.76 1012.34 1012.99 1013.63 1014.22 1014.70 1015.07 1015.33 1015.52 1015.67 1015.82 1015.99 1016.16 1016.34 1016.47 1016.55 1016.57 1016.55 1016.50 1016.47 1016.50 1016.59 1016.74 1016.93 1017.09 1017.18 1017.16
1011.85 1012.08 1012.20 1012.19 1012.05 1011.77 1011.40 1011.00 1010.62 1010.32 1010.14 1010.08 1010.13 1010.25 1010.40 1010.54 1010.66 1010.76 1010.86 1011.00 1011.23 1011.55 1011.98 1012.50 1013.07 1013.63 1014.13 1014.54 1014.86 1015.10 1015.27 1015.43 1015.58 1015.75 1015.92 1016.09 1016.22 1016.29 1016.31 1016.29 1016.25 1016.23 1016.25 1016.34 1016.46 1016.61 1016.73 1016.77 1016.71
1012.04 1012.19 1012.23 1012.14 1011.93 1011.60 1011.20 1010.78 1010.40 1010.11 1009.94 1009.89 1009.97 1010.12 1010.32 1010.52 1010.71 1010.89 1011.06 1011.26 1011.52 1011.85 1012.26 1012.72 1013.20 1013.66 1014.07 1014.40 1014.65 1014.83 1014.97 1015.10 1015.24 1015.40 1015.57 1015.72 1015.85 1015.92 1015.94 1015.93 1015.89 1015.87 1015.89 1015.95 1016.04 1016.14 1016.21 1016.21 1016.11
1012.16 1012.23 1012.18 1012.02 1011.74 1011.36 1010.93 1010.49 1010.09 1009.79 1009.62 1009.58 1009.67 1009.85 1010.10 1010.37 1010.65 1010.91 1011.18 1011.46 1011.77 1012.13 1012.52 1012.94 1013.35 1013.72 1014.03 1014.27 1014.44 1014.55 1014.64 1014.73 1014.84 1014.98 1015.13 1015.28 1015.40 1015.47 1015.50 1015.48 1015.45 1015.43 1015.43 1015.46 1015.51 1015.57 1015.59 1015.55 1015.44
1012.24 1012.23 1012.11 1011.88 1011.54 1011.12 1010.65 1010.17 1009.75 1009.43 1009.24 1009.19 1009.27 1009.48 1009.76 1010.09 1010.45 1010.81 1011.18 1011.54 1011.92 1012.31 1012.71 1013.09 1013.45 1013.75 1013.98 1014.13 1014.22 1014.26 1014.30 1014.34 1014.42 1014.53 1014.66 1014.80 1014.92 1014.99 1015.02 1015.01 1014.98 1014.94 1014.93 1014.93 1014.95 1014.96 1014.95 1014.88 1014.75
1012.32 1012.24 1012.06 1011.78 1011.39 1010.93 1010.43 1009.92 1009.47 1009.11 1008.88 1008.80 1008.87 1009.07 1009.37 1009.74 1010.16 1010.59 1011.04 1011.48 1011.91 1012.34 1012.75 1013.12 1013.44 1013.69 1013.86 1013.95 1013.98 1013.97 1013.96 1013.97 1014.01 1014.10 1014.22 1014.34 1014.46 1014.53 1014.57 1014.56 1014.52 1014.48 1014.45 1014.43 1014.42 1014.40 1014.36 1014.28 1014.14
1012.43 1012.31 1012.09 1011.77 1011.35 1010.87 1010.34 1009.81 1009.33 1008.93 1008.65 1008.53 1008.55 1008.72 1009.01 1009.39 1009.83 1010.30 1010.78 1011.26 1011.73 1012.18 1012.60 1012.97 1013.27 1013.50 1013.64 1013.70 1013.71 1013.67 1013.64 1013.63 1013.66 1013.73 1013.83 1013.95 1014.06 1014.14 1014.17 1014.17 1014.13 1014.09 1014.04 1014.00 1013.97 1013.94 1013.88 1013.79 1013.64
1012.61 1012.46 1012.22 1011.89 1011.47 1010.98 1010.45 1009.91 1009.40 1008.96 1008.64 1008.47 1008.44 1008.55 1008.79 1009.13 1009.54 1009.99 1010.46 1010.93 1011.40 1011.84 1012.26 1012.62 1012.92 1013.15 1013.30 1013.37 1013.39 1013.37 1013.34 1013.33 1013.37 1013.44 1013.54 1013.66 1013.76 1013.84 1013.88 1013.88 1013.84 1013.79 1013.73 1013.69 1013.65 1013.60 1013.54 1013.44 1013.29
1012.85 1012.70 1012.45 1012.13 1011.73 1011.26 1010.74 1010.21 1009.69 1009.24 1008.88 1008.66 1008.57 1008.62 1008.78 1009.04 1009.38 1009.75 1010.15 1010.56 1010.97 1011.38 1011.76 1012.12 1012.42 1012.67 1012.85 1012.97 1013.03 1013.06 1013.07 1013.09 1013.15 1013.23 1013.34 1013.46 1013.57 1013.65 1013.69 1013.68 1013.64 1013.58 1013.52 1013.47 1013.42 1013.37 1013.30 1013.20 1013.04
1013.14 1012.98 1012.76 1012.46 1012.09 1011.66 1011.17 1010.66 1010.17 1009.71 1009.35 1009.08 1008.95 1008.92 1009.01 1009.17 1009.39 1009.65 1009.94 1010.24 1010.55 1010.87 1011.21 1011.53 1011.84 1012.12 1012.35 1012.53 1012.66 1012.76 1012.83 1012.91 1012.99 1013.10 1013.23 1013.35 1013.46 1013.54 1013.58 1013.57 1013.52 1013.45 1013.38 1013.32 1013.26 1013.21 1013.14 1013.03 1012.86
1013.42 1013.28 1013.07 1012.81 1012.49 1012.10 1011.67 1011.20 1010.74 1010.31 1009.95 1009.68 1009.51 1009.44 1009.44 1009.50 1009.61 1009.73 1009.88 1010.04 1010.22 1010.44 1010.69 1010.97 1011.27 1011.57 1011.85 1012.10 1012.31 1012.48 1012.62 1012.75 1012.88 1013.02 1013.16 1013.30 1013.41 1013.49 1013.52 1013.50 1013.45 1013.37 1013.28 1013.20 1013.13 1013.07 1012.99 1012.87 1012.70
1013.66 1013.53 1013.36 1013.14 1012.87 1012.53 1012.15 1011.73 1011.32 1010.93 1010.60 1010.34 1010.17 1010.07 1010.02 1010.00 1009.99 1009.99 1009.99 1010.01 1010.06 1010.15 1010.31 1010.53 1010.80 1011.11 1011.42 1011.72 1011.99 1012.23 1012.43 1012.61 1012.78 1012.94 1013.10 1013.24 1013.36 1013.44 1013.47 1013.44 1013.38 1013.28 1013.18 1013.08 1012.99 1012.91 1012.82 1012.70 1012.51
1013.84 1013.73 1013.59 1013.41 1013.18 1012.89 1012.55 1012.19 1011.82 1011.47 1011.18 1010.96 1010.80 1010.70 1010.63 1010.57 1010.49 1010.39 1010.28 1010.16 1010.08 1010.06 1010.12 1010.26 1010.49 1010.77 1011.09 1011.41 1011.72 1011.99 1012.23 1012.44 1012.63 1012.81 1012.98 1013.13 1013.26 1013.34 1013.38 1013.35 1013.28 1013.17 1013.05 1012.93 1012.82 1012.72 1012.61 1012.48 1012.29
1013.95 1013.87 1013.77 1013.63 1013.43 1013.17 1012.87 1012.53 1012.19 1011.88 1011.62 1011.44 1011.31 1011.24 1011.18 1011.11 1011.01 1010.85 1010.66 1010.46 1010.28 1010.16 1010.12 1010.18 1010.34 1010.57 1010.86 1011.17 1011.47 1011.74 1011.98 1012.20 1012.40 1012.58 1012.76 1012.93 1013.06 1013.16 1013.21 1013.20 1013.12 1013.01 1012.87 1012.73 1012.59 1012.47 1012.36 1012.22 1012.04
1014.02 1013.99 1013.93 1013.82 1013.65 1013.41 1013.11 1012.77 1012.43 1012.13 1011.89 1011.73 1011.64 1011.60 1011.58 1011.54 1011.44 1011.29 1011.07 1010.82 1010.58 1010.38 1010.26 1010.24 1010.32 1010.48 1010.71 1010.96 1011.22 1011.45 1011.67 1011.86 1012.05 1012.23 1012.41 1012.59 1012.74 1012.87 1012.94 1012.95 1012.89 1012.78 1012.64 1012.48 1012.33 1012.19 1012.07 1011.93 1011.77
1014.09 1014.12 1014.11 1014.04 1013.89 1013.65 1013.33 1012.96 1012.59 1012.26 1012.00 1011.83 1011.76 1011.75 1011.77 1011.77 1011.72 1011.60 1011.40 1011.16 1010.89 1010.65 1010.47 1010.37 1010.37 1010.45 1010.58 1010.76 1010.94 1011.11 1011.27 1011.42 1011.58 1011.74 1011.92 1012.11 1012.29 1012.45 1012.56 1012.60 1012.57 1012.48 1012.35 1012.19 1012.03 1011.88 1011.75 1011.63 1011.50
1014.20 1014.30 1014.36 1014.33 1014.20 1013.94 1013.59 1013.16 1012.72 1012.32 1012.00 1011.79 1011.70 1011.70 1011.75 1011.80 1011.81 1011.74 1011.59 1011.37 1011.12 1010.86 1010.65 1010.49 1010.41 1010.40 1010.45 1010.53 1010.62 1010.71 1010.81 1010.91 1011.03 1011.17 1011.34 1011.54 1011.75 1011.94 1012.09 1012.17 1012.18 1012.12 1012.01 1011.86 1011.70 1011.56 1011.43 1011.32 1011.22
1014.37 1014.55 1014.68 1014.70 1014.58 1014.31 1013.90 1013.40 1012.87 1012.37 1011.96 1011.67 1011.53 1011.50 1011.56 1011.64 1011.69 1011.68 1011.60 1011.43 1011.21 1010.96 1010.73 1010.53 1010.39 1010.31 1010.27 1010.27 1010.28 1010.30 1010.33 1010.38 1010.46 1010.58 1010.74 1010.94 1011.17 1011.38 1011.57 1011.69 1011.74 1011.72 1011.63 1011.50 1011.36 1011.22 1011.11 1011.01 1010.94
1014.57 1014.84 1015.04 1015.12 1015.02 1014.73 1014.27 1013.69 1013.05 1012.44 1011.91 1011.53 1011.30 1011.22 1011.25 1011.33 1011.42 1011.46 1011.42 1011.31 1011.13 1010.91 1010.68 1010.47 1010.30 1010.17 1010.07 1010.01 1009.96 1009.92 1009.91 1009.92 1009.96 1010.06 1010.21 1010.41 1010.63 1010.86 1011.06 1011.21 1011.29 1011.30 1011.24 1011.14 1011.02 1010.90 1010.79 1010.72 1010.67
1014.77 1015.12 1015.39 1015.51 1015.43 1015.13 1014.63 1013.97 1013.24 1012.52 1011.88 1011.39 1011.07 1010.91 1010.89 1010.95 1011.05 1011.11 1011.12 1011.06 1010.92 1010.74 1010.53 1010.33 1010.15 1010.00 1009.88 1009.78 1009.71 1009.65 1009.62 1009.61 1009.63 1009.71 1009.84 1010.01 1010.22 1010.44 1010.63 1010.79 1010.88 1010.91 1010.88 1010.80 1010.70 1010.60 1010.51 1010.46 1010.43
1014.94 1015.34 1015.64 1015.79 1015.72 1015.41 1014.89 1014.19 1013.39 1012.58 1011.85 1011.26 1010.85 1010.62 1010.54 1010.57 1010.65 1010.72 1010.76 1010.72 1010.63 1010.48 1010.31 1010.13 1009.97 1009.84 1009.73 1009.65 1009.59 1009.54 1009.51 1009.50 1009.53 1009.59 1009.69 1009.83 1010.00 1010.18 1010.34 1010.48 1010.56 1010.59 1010.58 1010.52 1010.44 1010.37 1010.30 1010.26 1010.23
1015.02 1015.42 1015.73 1015.88 1015.81 1015.50 1014.96 1014.24 1013.42 1012.57 1011.78 1011.14 1010.66 1010.37 1010.24 1010.22 1010.28 1010.35 1010.39 1010.38 1010.32 1010.21 1010.08 1009.94 1009.82 1009.73 1009.66 1009.63 1009.61 1009.61 1009.61 1009.63 1009.66 1009.71 1009.79 1009.89 1010.00 1010.12 1010.23 1010.32 1010.37 1010.39 1010.38 1010.34 1010.29 1010.23 1010.19 1010.16 1010.14
1014.98 1015.34 1015.61 1015.73 1015.64 1015.32 1014.78 1014.07 1013.26 1012.41 1011.63 1010.97 1010.47 1010.15 1009.98 1009.94 1009.98 1010.04 1010.09 1010.09 1010.06 1009.98 1009.89 1009.80 1009.72 1009.69 1009.68 1009.71 1009.76 1009.82 1009.88 1009.94 1009.99 1010.05 1010.10 1010.15 1010.21 1010.26 1010.30 1010.33 1010.35 1010.34 1010.32 1010.29 1010.26 1010.24 1010.22 1010.21 1010.20
1014.83 1015.10 1015.28 1015.33 1015.20 1014.86 1014.34 1013.66 1012.89 1012.09 1011.35 1010.73 1010.25 1009.94 1009.77 1009.72 1009.75 1009.80 1009.85 1009.87 1009.85 1009.81 1009.75 1009.70 1009.68 1009.70 1009.76 1009.85 1009.97 1010.10 1010.22 1010.33 1010.42 1010.48 1010.52 1010.55 1010.55 1010.54 1010.52 1010.50 1010.47 1010.44 1010.42 1010.40 1010.39 1010.40 1010.41 1010.42 1010.42
Thickness
5836 5841 5844 5839 5834 5840 5832 5836 5841 5840 5844 5852 5852 5847 5842 5838 5832 5826 5845 5854 5850 5843 5833 5822 5817 5813 5810 5808 5806 5803 5800 5797 5794 5791 5788 5785 5783 5781 5779 5776 5774 5773 5771 5769 5767 5765 5763 5760 5758
5843 5844 5841 5840 5837 5830 5826 5837 5839 5843 5849 5854 5852 5847 5843 5844 5846 5845 5849 5852 5849 5843 5835 5826 5817 5813 5810 5807 5805 5803 5800 5797 5794 5791 5788 5785 5783 5781 5779 5777 5775 5773 5771 5769 5767 5765 5762 5760 5758
5844 5845 5841 5843 5834 5829 5826 5839 5842 5848 5854 5853 5848 5849 5845 5844 5845 5847 5853 5852 5848 5842 5835 5826 5818 5814 5811 5808 5805 5802 5799 5796 5793 5790 5788 5785 5783 5781 5780 5778 5776 5774 5771 5769 5767 5765 5762 5760 5758
5845 5844 5845 5840 5830 5835 5837 5844 5850 5847 5850 5853 5850 5846 5850 5850 5850 5853 5853 5852 5846 5840 5835 5826 5818 5814 5811 5808 5805 5802 5799 5796 5793 5790 5788 5786 5784 5782 5780 5778 5776 5774 5772 5769 5767 5764 5762 5760 5758
5846 5843 5837 5834 5832 5840 5848 5853 5854 5848 5847 5851 5850 5844 5844 5850 5855 5855 5851 5849 5845 5841 5835 5826 5817 5813 5810 5807 5804 5802 5799 5795 5792 5790 5787 5785 5784 5782 5780 5778 5776 5774 5772 5769 5767 5764 5762 5760 5758
5840 5841 5830 5827 5829 5839 5849 5855 5854 5850 5848 5850 5848 5843 5843 5850 5850 5850 5851 5847 5846 5841 5835 5825 5815 5811 5808 5805 5803 5800 5797 5794 5792 5789 5787 5785 5784 5782 5780 5778 5776 5774 5773 5770 5768 5765 5762 5760 5758
5831 5832 5828 5829 5828 5834 5842 5855 5852 5849 5846 5852 5853 5842 5842 5844 5849 5850 5847 5845 5845 5840 5833 5824 5816 5810 5806 5803 5801 5799 5796 5793 5791 5789 5787 5785 5783 5781 5779 5778 5776 5775 5773 5771 5769 5766 5764 5761 5759
5836 5832 5829 5830 5828 5831 5845 5853 5856 5854 5850 5859 5855 5842 5839 5843 5848 5847 5843 5841 5839 5835 5829 5823 5818 5813 5808 5804 5799 5797 5795 5792 5790 5787 5785 5783 5781 5780 5778 5777 5776 5774 5773 5772 5770 5768 5766 5763 5761
5832 5821 5824 5830 5830 5834 5846 5847 5856 5862 5855 5852 5855 5853 5855 5853 5847 5840 5834 5832 5830 5827 5824 5821 5818 5813 5810 5807 5802 5796 5793 5791 5788 5786 5784 5781 5783 5785 5781 5779 5776 5774 5773 5772 5771 5770 5768 5766 5766
5824 5815 5826 5831 5836 5838 5843 5845 5851 5853 5848 5846 5850 5853 5853 5849 5841 5833 5828 5826 5823 5820 5819 5817 5815 5811 5809 5808 5803 5799 5797 5794 5790 5790 5787 5784 5784 5784 5784 5780 5776 5774 5773 5772 5772 5771 5770 5770 5773
5821 5816 5822 5830 5838 5839 5840 5845 5853 5848 5844 5851 5850 5850 5847 5843 5838 5832 5828 5827 5823 5820 5817 5814 5811 5808 5808 5806 5804 5801 5800 5797 5793 5790 5787 5785 5785 5784 5783 5782 5780 5777 5775 5776 5777 5776 5777 5778 5777
5813 5815 5818 5825 5835 5835 5835 5841 5844 5848 5852 5862 5861 5859 5848 5842 5839 5835 5830 5827 5824 5819 5817 5814 5809 5805 5803 5804 5803 5800 5798 5796 5795 5791 5787 5787 5785 5784 5784 5781 5782 5780 5779 5778 5777 5776 5778 5777 5777
5806 5812 5817 5823 5828 5832 5833 5836 5838 5845 5859 5861 5858 5853 5847 5844 5841 5838 5835 5829 5824 5818 5816 5813 5806 5801 5798 5797 5797 5797 5797 5797 5793 5790 5787 5785 5785 5783 5783 5780 5778 5778 5779 5778 5778 5778 5777 5776 5776
5806 5808 5814 5820 5822 5824 5822 5831 5835 5842 5852 5850 5848 5846 5845 5843 5840 5835 5830 5825 5821 5816 5813 5811 5804 5799 5795 5793 5792 5793 5794 5791 5791 5789 5787 5783 5782 5781 5779 5777 5775 5776 5776 5777 5776 5777 5776 5776 5776
5802 5800 5809 5816 5816 5818 5817 5815 5825 5837 5841 5839 5840 5841 5840 5837 5834 5829 5825 5821 5819 5816 5814 5808 5803 5798 5793 5790 5789 5790 5791 5790 5789 5787 5784 5781 5779 5777 5775 5774 5774 5775 5774 5773 5772 5773 5773 5773 5774
5794 5792 5792 5805 5810 5813 5806 5802 5819 5828 5830 5829 5832 5832 5830 5827 5826 5825 5822 5817 5816 5813 5809 5806 5802 5797 5791 5787 5785 5787 5787 5787 5786 5783 5782 5778 5775 5773 5770 5771 5772 5772 5770 5770 5769 5769 5769 5770 5770
5780 5779 5779 5790 5803 5805 5802 5798 5807 5818 5820 5818 5820 5821 5820 5818 5816 5816 5816 5814 5811 5808 5804 5801 5799 5796 5791 5787 5784 5782 5782 5781 5780 5778 5777 5774 5770 5768 5765 5765 5765 5764 5764 5764 5764 5767 5764 5764 5764
5765 5769 5770 5775 5789 5792 5790 5790 5797 5805 5807 5807 5809 5809 5806 5806 5806 5808 5808 5809 5807 5804 5801 5797 5794 5792 5789 5785 5781 5779 5778 5777 5774 5772 5769 5765 5762 5760 5758 5757 5756 5756 5756 5755 5755 5756 5757 5757 5758
5761 5761 5761 5767 5780 5779 5777 5778 5784 5791 5795 5795 5796 5797 5796 5795 5799 5800 5799 5799 5799 5797 5793 5791 5789 5788 5784 5781 5778 5774 5772 5771 5769 5765 5760 5754 5751 5749 5746 5746 5746 5746 5746 5747 5748 5749 5751 5751 5754
5757 5754 5756 5764 5773 5770 5768 5771 5777 5778 5778 5779 5779 5779 5781 5784 5785 5786 5786 5787 5788 5787 5786 5784 5782 5782 5780 5778 5775 5773 5770 5767 5763 5757 5751 5745 5740 5736 5734 5731 5733 5735 5736 5737 5738 5740 5741 5744 5746
5753 5751 5750 5751 5762 5769 5762 5763 5769 5771 5773 5772 5772 5771 5771 5770 5771 5773 5775 5775 5776 5776 5776 5776 5775 5775 5774 5773 5768 5764 5759 5754 5750 5747 5742 5736 5731 5725 5723 5719 5720 5722 5725 5728 5730 5732 5732 5734 5738
5744 5752 5749 5748 5746 5750 5754 5741 5764 5767 5764 5762 5763 5763 5763 5763 5763 5762 5763 5762 5763 5764 5765 5765 5765 5764 5765 5763 5759 5754 5748 5743 5741 5739 5734 5728 5723 5717 5714 5710 5710 5711 5714 5719 5723 5728 5728 5728 5731
5744 5748 5745 5744 5741 5741 5750 5741 5757 5760 5753 5753 5752 5752 5754 5754 5753 5751 5751 5751 5753 5754 5754 5754 5754 5754 5754 5752 5749 5744 5740 5738 5734 5730 5725 5718 5715 5710 5705 5702 5702 5701 5707 5712 5715 5718 5720 5725 5726
5744 5740 5742 5741 5739 5726 5740 5733 5738 5756 5750 5745 5742 5743 5745 5745 5745 5743 5743 5743 5743 5744 5744 5743 5742 5741 5741 5739 5737 5733 5729 5726 5722 5718 5713 5709 5705 5703 5700 5699 5696 5698 5702 5704 5707 5710 5714 5717 5718
5737 5725 5719 5720 5726 5729 5732 5723 5734 5743 5742 5737 5735 5736 5739 5739 5737 5736 5735 5733 5733 5733 5732 5731 5730 5728 5728 5726 5724 5721 5718 5714 5711 5708 5704 5700 5697 5695 5693 5694 5692 5693 5695 5697 5701 5704 5707 5710 5710
5727 5719 5703 5692 5704 5717 5727 5721 5737 5739 5738 5735 5733 5732 5732 5732 5732 5730 5729 5728 5727 5725 5723 5722 5719 5716 5715 5712 5709 5707 5705 5702 5700 5697 5695 5692 5690 5690 5688 5687 5686 5686 5688 5691 5694 5699 5701 5702 5703
5722 5720 5719 5703 5707 5704 5720 5731 5735 5734 5729 5729 5728 5727 5726 5726 5725 5724 5724 5722 5720 5717 5715 5711 5707 5704 5701 5698 5695 5692 5690 5687 5685 5683 5682 5682 5681 5682 5680 5681 5680 5679 5681 5683 5686 5691 5692 5693 5694
5727 5722 5711 5701 5687 5692 5712 5721 5722 5722 5721 5724 5723 5721 5721 5721 5720 5718 5716 5713 5710 5707 5704 5700 5695 5690 5685 5681 5678 5676 5674 5671 5668 5667 5667 5667 5668 5670 5670 5670 5671 5672 5672 5675 5678 5682 5684 5684 5684
5719 5714 5707 5704 5696 5685 5690 5711 5731 5723 5720 5717 5716 5717 5716 5714 5713 5711 5708 5704 5700 5697 5692 5686 5680 5674 5667 5662 5658 5656 5655 5653 5652 5650 5651 5652 5654 5656 5658 5659 5661 5663 5664 5668 5670 5675 5675 5675 5676
5716 5710 5704 5686 5684 5690 5685 5699 5734 5723 5716 5711 5709 5710 5710 5707 5706 5704 5700 5696 5692 5686 5680 5673 5667 5659 5651 5644 5641 5638 5637 5636 5634 5633 5635 5638 5641 5644 5647 5649 5652 5655 5657 5660 5663 5665 5665 5665 5665